Roda de Ter - l'Esquerda





Hora UTC 10:00
Temperatura 17.9 ºC
Humitat 69.0 %
Pressió 1012.2 hPa
Pluja 0.0 mm
Velocitat vent 6.4 km/h
Direcció vent W

Dades diàries 2021-05-14



Hora UTC (hivern +1h; estiu +2h)
Temperatura (ºC) Humitat (%) Pressió (hPa) Velocitat vent (km/h) Precipitació (mm)
Hora UTC Aire Humitat Pressió Vel. Dir. Vel. Max Dir. Intent. màx 5 min.
00:05 11.1 83.0 1010.8 1.6 WSW 1.6 0.0
00:10 11.2 82.0 1010.6 1.6 WSW 3.2 0.0
00:15 11.2 82.0 1010.7 1.6 WSW 3.2 0.0
00:20 11.2 83.0 1010.8 0.0 WSW 3.2 0.0
00:25 11.2 83.0 1010.7 0.0 WSW 3.2 0.0
00:30 11.3 83.0 1010.7 0.0 WSW 3.2 0.0
00:35 11.2 84.0 1010.6 1.6 WSW 3.2 0.0
00:40 11.2 84.0 1010.6 0.0 WSW 3.2 0.0
00:45 11.3 83.0 1010.7 0.0 WSW 1.6 0.0
00:50 11.4 83.0 1010.6 0.0 WSW 1.6 0.0
00:55 11.5 83.0 1010.5 1.6 WSW 1.6 0.0
01:00 11.5 84.0 1010.5 1.6 WSW 3.2 0.0
01:05 11.4 84.0 1010.5 1.6 WSW 3.2 0.0
01:10 11.4 84.0 1010.4 3.2 W 3.2 0.0
01:15 11.4 84.0 1010.4 0.0 W 3.2 0.0
01:20 11.5 84.0 1010.4 0.0 W 3.2 0.0
01:25 11.6 84.0 1010.6 1.6 W 1.6 0.0
01:30 11.5 85.0 1010.5 0.0 W 1.6 0.0
01:35 11.6 85.0 1010.3 0.0 W 1.6 0.0
01:40 11.5 85.0 1010.3 0.0 W 1.6 0.0
01:45 11.6 85.0 1010.2 0.0 W 1.6 0.0
01:50 11.6 85.0 1010.2 1.6 W 3.2 0.0
01:55 11.6 84.0 1010.1 1.6 W 3.2 0.0
02:00 11.6 84.0 1010.1 0.0 W 3.2 0.0
02:05 11.7 84.0 1010.3 1.6 W 3.2 0.0
02:10 11.7 85.0 1010.3 0.0 W 1.6 0.0
02:15 11.7 85.0 1010.2 0.0 W 1.6 0.0
02:20 11.7 85.0 1010.1 0.0 W 1.6 0.0
02:25 11.7 85.0 1010.0 0.0 W 1.6 0.0
02:30 11.7 86.0 1010.0 1.6 W 1.6 0.0
02:35 11.7 86.0 1010.1 1.6 W 3.2 0.0
02:40 11.6 86.0 1010.0 0.0 W 3.2 0.0
02:45 11.7 86.0 1010.0 1.6 W 3.2 0.0
02:50 11.6 85.0 1009.9 0.0 W 3.2 0.0
02:55 11.6 85.0 1009.9 1.6 W 3.2 0.0
03:00 11.5 85.0 1009.7 0.0 W 1.6 0.0
03:05 11.5 85.0 1009.8 0.0 W 1.6 0.0
03:10 11.6 85.0 1009.9 0.0 W 1.6 0.0
03:15 11.5 85.0 1009.9 1.6 W 1.6 0.0
03:20 11.4 85.0 1010.0 0.0 W 1.6 0.0
03:25 11.4 85.0 1009.9 0.0 W 1.6 0.0
03:30 11.3 85.0 1010.0 4.8 W 4.8 0.0
03:35 11.2 86.0 1010.1 1.6 WSW 4.8 0.0
03:40 11.1 85.0 1010.1 1.6 WSW 4.8 0.0
03:45 11.0 85.0 1010.0 0.0 WSW 4.8 0.0
03:50 10.9 85.0 1010.1 1.6 WSW 3.2 0.0
03:55 10.9 86.0 1010.2 0.0 WSW 3.2 0.0
04:00 10.9 86.0 1010.1 1.6 WSW 3.2 0.0
04:05 10.9 86.0 1010.2 0.0 WSW 3.2 0.0
04:10 10.9 86.0 1010.1 0.0 WSW 1.6 0.0
04:15 10.9 86.0 1010.1 0.0 WSW 1.6 0.0
04:20 11.1 86.0 1010.2 1.6 WSW 3.2 0.0
04:25 10.9 86.0 1010.2 0.0 WSW 3.2 0.0
04:30 10.9 86.0 1010.1 1.6 WSW 1.6 0.0
04:35 10.9 86.0 1010.2 1.6 WSW 1.6 0.0
04:40 10.9 86.0 1010.2 0.0 WSW 1.6 0.0
04:45 10.9 86.0 1010.3 1.6 WSW 3.2 0.0
04:50 10.9 86.0 1010.4 1.6 WSW 4.8 0.0
04:55 10.9 86.0 1010.4 1.6 WSW 4.8 0.0
05:00 11.0 87.0 1010.4 0.0 WSW 3.2 0.0
05:05 11.0 87.0 1010.5 0.0 WSW 0.0 0.0
05:10 10.9 86.0 1010.4 0.0 WSW 0.0 0.0
05:15 11.1 86.0 1010.5 0.0 WSW 0.0 0.0
05:20 11.1 87.0 1010.6 0.0 WSW 1.6 0.0
05:25 11.0 87.0 1010.7 0.0 WSW 1.6 0.0
05:30 10.9 86.0 1010.7 0.0 WSW 1.6 0.0
05:35 10.9 86.0 1010.6 0.0 WSW 1.6 0.0
05:40 11.0 86.0 1010.7 0.0 WSW 1.6 0.0
05:45 11.1 86.0 1010.8 0.0 WSW 1.6 0.0
05:50 11.2 85.0 1010.8 0.0 WSW 3.2 0.0
05:55 11.2 86.0 1010.8 1.6 W 4.8 0.0
06:00 11.2 85.0 1010.8 1.6 W 4.8 0.0
06:05 11.3 84.0 1010.8 0.0 W 3.2 0.0
06:10 11.6 85.0 1011.0 1.6 W 3.2 0.0
06:15 11.7 85.0 1011.0 3.2 W 4.8 0.0
06:20 11.7 85.0 1011.1 1.6 W 4.8 0.0
06:25 11.9 85.0 1011.0 0.0 W 3.2 0.0
06:30 11.8 85.0 1011.1 1.6 W 3.2 0.0
06:35 11.7 85.0 1011.1 1.6 W 3.2 0.0
06:40 12.1 86.0 1011.3 0.0 W 3.2 0.0
06:45 11.9 83.0 1011.3 0.0 W 3.2 0.0
06:50 11.9 84.0 1011.3 1.6 W 3.2 0.0
06:55 12.1 85.0 1011.3 0.0 W 3.2 0.0
07:00 12.2 85.0 1011.4 3.2 SW 4.8 0.0
07:05 12.3 85.0 1011.5 1.6 SW 4.8 0.0
07:10 12.4 85.0 1011.6 3.2 SW 4.8 0.0
07:15 12.6 84.0 1011.6 3.2 SW 4.8 0.0
07:20 12.8 83.0 1011.5 4.8 SSE 8.0 0.0
07:25 12.7 82.0 1011.7 3.2 SE 6.4 0.0
07:30 12.5 83.0 1011.7 1.6 SSE 8.0 0.0
07:35 12.5 84.0 1011.6 1.6 S 6.4 0.0
07:40 12.5 85.0 1011.5 1.6 S 16.1 0.0
07:45 12.3 84.0 1011.5 11.3 SSW 16.1 0.0
07:50 12.3 84.0 1011.7 9.7 SSW 17.7 0.0
07:55 12.3 83.0 1011.9 12.9 S 16.1 0.0
08:00 12.3 84.0 1012.0 6.4 S 14.5 0.0
08:05 12.2 84.0 1012.1 3.2 S 14.5 0.0
08:10 12.4 85.0 1012.2 6.4 WSW 9.7 0.0
08:15 13.1 86.0 1012.1 3.2 S 11.3 0.0
08:20 14.5 82.0 1012.1 4.8 N 9.7 0.0
08:25 15.2 78.0 1012.1 8.0 SSW 11.3 0.0
08:30 15.0 77.0 1012.0 3.2 SW 16.1 0.0
08:35 15.5 76.0 1012.1 3.2 N 16.1 0.0
08:40 15.8 75.0 1012.0 6.4 N 14.5 0.0
08:45 16.1 77.0 1012.0 6.4 N 17.7 0.0
08:50 16.6 76.0 1011.9 9.7 N 9.7 0.0
08:55 16.4 74.0 1012.0 8.0 N 14.5 0.0
09:00 16.9 70.0 1012.0 1.6 N 14.5 0.0
09:05 17.3 69.0 1011.9 3.2 N 16.1 0.0
09:10 16.8 68.0 1011.9 9.7 N 16.1 0.0
09:15 15.8 68.0 1012.1 3.2 N 14.5 0.0
09:20 15.8 72.0 1012.0 12.9 SW 19.3 0.0
09:25 15.6 75.0 1012.1 6.4 SSW 19.3 0.0
09:30 16.7 70.0 1012.1 3.2 S 16.1 0.0
09:35 17.7 68.0 1012.1 14.5 SSE 14.5 0.0
09:40 17.3 64.0 1012.1 6.4 SSW 17.7 0.0
09:45 17.7 64.0 1012.1 12.9 SSE 16.1 0.0
09:50 17.2 67.0 1012.1 11.3 SW 16.1 0.0
09:50 16.4 71.0 1012.2 8.0 S 14.5 0.0
10:00 17.9 69.0 1012.2 6.4 W 16.1 0.0
Màxima 17.9 87.0 1012.2 14.5 SSE 19.3 0.0
Mínima 10.8 64.0 1009.7
Total 0.0